CSCL Long Beach — VRCZ7 — position and weather

sailwx.info

Track history (hours):
 
Tides and Currents Weather Stations Pressure Air Temp Water Temp Dewpoint Dewpoint Depression Visibility Wind Speed Wind Dir Waves Ship Positions

CSCL Long Beach

Last reported at 2015-May-28 06:33 UTC. Time now 2015-May-29 01:51 UTC.
Position N 31°31' E 032°15'.

Length 336.7 m; beam 45.6 m; draft 15 m.

Type: Cargo ship. MMSI: 477883900.

Date/timePositionNaut miles runAvg speedWind from/ knotsBaromVisibWave heightAir tempDewpointWater temp
2015-May-28 06:33N 31°31' E 032°15'1714.1
2015-May-28 05:20N 31°42' E 032°00'1114.1
2015-May-28 04:33N 31°49' E 031°51'1513.9
2015-May-28 03:28N 32°00' E 031°38'1313.9
2015-May-28 02:33N 32°09' E 031°27'1413.8
2015-May-28 01:33N 32°18' E 031°15'1513.7
2015-May-28 00:30N 32°27' E 031°01'1313.5
2015-May-27 23:34N 32°32' E 030°48'1413.7
2015-May-27 22:34N 32°36' E 030°32'1814.2
2015-May-27 21:18N 32°41' E 030°12'6613.8
2015-May-27 16:33N 32°59' E 028°57'69915.1
2015-May-25 18:16N 36°05' E 015°18'2514.4
2015-May-25 16:32N 36°11' E 014°49'1414.7
2015-May-25 15:33N 36°15' E 014°32'1414.4
2015-May-25 14:33N 36°19' E 014°14'1514.8
2015-May-25 13:33N 36°24' E 013°57'1514.9
2015-May-25 12:33N 36°28' E 013°39'1515.0
2015-May-25 11:33N 36°33' E 013°22'1514.7
2015-May-25 10:33N 36°38' E 013°04'1414.4
2015-May-25 09:33N 36°42' E 012°47'1514.6
2015-May-25 08:33N 36°47' E 012°30'1514.8
2015-May-25 07:33N 36°52' E 012°13'1515.0
2015-May-25 06:33N 37°01' E 011°57'19314.7
2015-May-24 17:27N 38°10' E 008°10'20614.8
2015-May-24 03:33N 38°53' E 003°53'1515.0
2015-May-24 02:33N 38°56' E 003°34'1514.6
2015-May-24 01:33N 38°59' E 003°16'1514.6
2015-May-24 00:33N 39°02' E 002°58'1514.6
2015-May-23 23:33N 39°05' E 002°39'1514.6
2015-May-23 22:33N 39°08' E 002°21'1814.7
2015-May-23 21:21N 39°12' E 001°59'1214.6
2015-May-23 20:33N 39°14' E 001°44'1414.4
2015-May-23 19:33N 39°16' E 001°26'1514.7
2015-May-23 18:33N 39°18' E 001°07'2014.6
2015-May-23 17:11N 39°20' E 000°41'1414.8
2015-May-23 16:16N 39°22' E 000°24'1414.6
2015-May-23 15:17N 39°23' E 000°05'1114.3
2015-May-23 14:29N 39°25' W 000°09'8 8.2
2015-May-23 13:33N 39°27' W 000°19'0 0.0
2015-May-23 12:32N 39°27' W 000°19'0 0.0
2015-May-23 11:32N 39°27' W 000°19'0 0.0
2015-May-23 10:32N 39°27' W 000°19'0 0.0
2015-May-23 09:32N 39°27' W 000°19'0 0.0
2015-May-23 08:32N 39°27' W 000°19'0 0.0
2015-May-23 07:32N 39°27' W 000°19'0 0.0
2015-May-23 06:32N 39°27' W 000°19'0 0.0
2015-May-23 05:32N 39°27' W 000°19'0 0.0
2015-May-23 04:32N 39°27' W 000°19'0 0.0
2015-May-23 03:32N 39°27' W 000°19'0 0.0
2015-May-23 02:32N 39°27' W 000°19'0 0.0
2015-May-23 01:32N 39°27' W 000°19'0 0.0
2015-May-23 00:32N 39°27' W 000°19'0 0.0
2015-May-22 23:32N 39°27' W 000°19'0 0.0
2015-May-22 22:32N 39°27' W 000°19'0 0.0
2015-May-22 21:32N 39°27' W 000°19'0 0.0
2015-May-22 20:32N 39°27' W 000°19'0 0.0
2015-May-22 19:32N 39°27' W 000°19'0 0.0
2015-May-22 18:32N 39°27' W 000°19'0 0.0
2015-May-22 17:32N 39°27' W 000°19'0 0.0
2015-May-22 16:32N 39°27' W 000°19'0 0.0
2015-May-22 15:32N 39°27' W 000°19'0 0.0
2015-May-22 14:32N 39°27' W 000°19'0 0.0
2015-May-22 13:33N 39°27' W 000°19'3 3.5
2015-May-22 12:33N 39°24' W 000°16'1 0.6
2015-May-22 11:32N 39°24' W 000°15'0 0.0
2015-May-22 10:29N 39°24' W 000°15'0 0.1
2015-May-22 08:23N 39°24' W 000°15'0 0.1
2015-May-22 07:29N 39°24' W 000°15'0 0.0
2015-May-22 06:29N 39°23' W 000°15'0 0.1
2015-May-22 05:14N 39°23' W 000°15'0 0.1
2015-May-22 04:32N 39°24' W 000°15'0 0.0
2015-May-22 03:29N 39°23' W 000°15'0 0.1
2015-May-22 02:29N 39°23' W 000°15'0 0.0
2015-May-22 01:17N 39°23' W 000°15'0 0.1
2015-May-22 00:29N 39°23' W 000°15'0 0.1
2015-May-21 22:29N 39°24' W 000°16'1 0.6
2015-May-21 21:32N 39°24' W 000°16'7 6.9
2015-May-21 20:33N 39°27' W 000°08'32113.9
2015-May-20 21:33N 43°10' E 004°59'1313.1
2015-May-20 20:33N 43°23' E 004°57'5 4.8
2015-May-20 19:31N 43°25' E 004°51'0 0.0
2015-May-20 18:31N 43°25' E 004°51'0 0.0
2015-May-20 17:31N 43°25' E 004°51'0 0.0
2015-May-20 16:31N 43°25' E 004°51'0 0.0
2015-May-20 15:28N 43°25' E 004°51'0 0.0
2015-May-20 14:31N 43°25' E 004°51'0 0.0
2015-May-20 13:31N 43°25' E 004°51'0 0.0
2015-May-20 12:31N 43°25' E 004°51'0 0.0
2015-May-20 11:31N 43°25' E 004°51'0 0.0
2015-May-20 10:31N 43°25' E 004°51'0 0.0
2015-May-20 09:31N 43°25' E 004°51'0 0.0
2015-May-20 08:28N 43°25' E 004°51'0 0.0
2015-May-20 07:31N 43°25' E 004°51'0 0.0
2015-May-20 06:22N 43°25' E 004°51'0 0.0
2015-May-20 05:31N 43°25' E 004°51'0 0.0
2015-May-20 04:31N 43°25' E 004°51'0 0.0
2015-May-20 03:25N 43°25' E 004°51'0 0.0
2015-May-20 02:31N 43°25' E 004°51'0 0.0
2015-May-20 01:31N 43°25' E 004°51'0 0.0
2015-May-20 00:31N 43°25' E 004°51'0 0.0
2015-May-19 23:28N 43°25' E 004°51'0 0.0
2015-May-19 22:25N 43°25' E 004°51'0 0.0
2015-May-19 21:31N 43°25' E 004°51'0 0.0
2015-May-19 20:25N 43°25' E 004°51'0 0.0
2015-May-19 19:31N 43°25' E 004°51'0 0.0
2015-May-19 18:31N 43°25' E 004°51'0 0.0
2015-May-19 17:33N 43°25' E 004°51'4 4.3
2015-May-19 16:33N 43°23' E 004°56'1110.9
2015-May-19 15:34N 43°13' E 005°02'11316.1
2015-May-19 08:34N 42°44' E 007°31'1716.6
2015-May-19 07:33N 43°01' E 007°25'1514.9
2015-May-19 06:34N 43°15' E 007°24'1614.3
2015-May-19 05:26N 43°27' E 007°38'1714.6
2015-May-19 04:16N 43°38' E 007°56'1115.1
2015-May-19 03:33N 43°44' E 008°09'1515.1
2015-May-19 02:34N 43°56' E 008°22'1515.3
2015-May-19 01:34N 44°09' E 008°32'1514.9
2015-May-19 00:34N 44°22' E 008°43'5 4.4
2015-May-18 23:32N 44°25' E 008°48'0 0.0
2015-May-18 22:32N 44°25' E 008°48'0 0.0
2015-May-18 21:32N 44°25' E 008°48'0 0.0
2015-May-18 20:32N 44°25' E 008°48'0 0.0
2015-May-18 19:32N 44°25' E 008°48'0 0.0
2015-May-18 18:32N 44°25' E 008°48'0 0.0
2015-May-18 17:32N 44°25' E 008°48'0 0.0
2015-May-18 16:32N 44°25' E 008°48'0 0.0
2015-May-18 15:32N 44°25' E 008°48'0 0.0
2015-May-18 14:32N 44°25' E 008°48'0 0.0
2015-May-18 13:29N 44°25' E 008°48'0 0.0
2015-May-18 12:32N 44°25' E 008°48'0 0.0
2015-May-18 11:32N 44°25' E 008°48'0 0.0
2015-May-18 10:32N 44°25' E 008°48'0 0.0
2015-May-18 09:32N 44°25' E 008°48'0 0.0
2015-May-18 08:29N 44°25' E 008°48'0 0.0
2015-May-18 07:32N 44°25' E 008°48'  
Track history (hours):
 
Tides and Currents Weather Stations Pressure Air Temp Water Temp Dewpoint Dewpoint Depression Visibility Wind Speed Wind Dir Waves Ship Positions

CSCL Long Beach

Last reported at 2015-May-28 06:33 UTC. Time now 2015-May-29 01:51 UTC.
Position N 31°31' E 032°15'.

Length 336.7 m; beam 45.6 m; draft 15 m.

Type: Cargo ship. MMSI: 477883900.

Date/timePositionNaut miles runAvg speedWind from/ knotsBaromVisibWave heightAir tempDewpointWater temp
2015-May-28 06:33N 31°31' E 032°15'1714.1
2015-May-28 05:20N 31°42' E 032°00'1114.1
2015-May-28 04:33N 31°49' E 031°51'1513.9
2015-May-28 03:28N 32°00' E 031°38'1313.9
2015-May-28 02:33N 32°09' E 031°27'1413.8
2015-May-28 01:33N 32°18' E 031°15'1513.7
2015-May-28 00:30N 32°27' E 031°01'1313.5
2015-May-27 23:34N 32°32' E 030°48'1413.7
2015-May-27 22:34N 32°36' E 030°32'1814.2
2015-May-27 21:18N 32°41' E 030°12'6613.8
2015-May-27 16:33N 32°59' E 028°57'69915.1
2015-May-25 18:16N 36°05' E 015°18'2514.4
2015-May-25 16:32N 36°11' E 014°49'1414.7
2015-May-25 15:33N 36°15' E 014°32'1414.4
2015-May-25 14:33N 36°19' E 014°14'1514.8
2015-May-25 13:33N 36°24' E 013°57'1514.9
2015-May-25 12:33N 36°28' E 013°39'1515.0
2015-May-25 11:33N 36°33' E 013°22'1514.7
2015-May-25 10:33N 36°38' E 013°04'1414.4
2015-May-25 09:33N 36°42' E 012°47'1514.6
2015-May-25 08:33N 36°47' E 012°30'1514.8
2015-May-25 07:33N 36°52' E 012°13'1515.0
2015-May-25 06:33N 37°01' E 011°57'19314.7
2015-May-24 17:27N 38°10' E 008°10'20614.8
2015-May-24 03:33N 38°53' E 003°53'1515.0
2015-May-24 02:33N 38°56' E 003°34'1514.6
2015-May-24 01:33N 38°59' E 003°16'1514.6
2015-May-24 00:33N 39°02' E 002°58'1514.6
2015-May-23 23:33N 39°05' E 002°39'1514.6
2015-May-23 22:33N 39°08' E 002°21'1814.7
2015-May-23 21:21N 39°12' E 001°59'1214.6
2015-May-23 20:33N 39°14' E 001°44'1414.4
2015-May-23 19:33N 39°16' E 001°26'1514.7
2015-May-23 18:33N 39°18' E 001°07'2014.6
2015-May-23 17:11N 39°20' E 000°41'1414.8
2015-May-23 16:16N 39°22' E 000°24'1414.6
2015-May-23 15:17N 39°23' E 000°05'1114.3
2015-May-23 14:29N 39°25' W 000°09'8 8.2
2015-May-23 13:33N 39°27' W 000°19'0 0.0
2015-May-23 12:32N 39°27' W 000°19'0 0.0
2015-May-23 11:32N 39°27' W 000°19'0 0.0
2015-May-23 10:32N 39°27' W 000°19'0 0.0
2015-May-23 09:32N 39°27' W 000°19'0 0.0
2015-May-23 08:32N 39°27' W 000°19'0 0.0
2015-May-23 07:32N 39°27' W 000°19'0 0.0
2015-May-23 06:32N 39°27' W 000°19'0 0.0
2015-May-23 05:32N 39°27' W 000°19'0 0.0
2015-May-23 04:32N 39°27' W 000°19'0 0.0
2015-May-23 03:32N 39°27' W 000°19'0 0.0
2015-May-23 02:32N 39°27' W 000°19'0 0.0
2015-May-23 01:32N 39°27' W 000°19'0 0.0
2015-May-23 00:32N 39°27' W 000°19'0 0.0
2015-May-22 23:32N 39°27' W 000°19'0 0.0
2015-May-22 22:32N 39°27' W 000°19'0 0.0
2015-May-22 21:32N 39°27' W 000°19'0 0.0
2015-May-22 20:32N 39°27' W 000°19'0 0.0
2015-May-22 19:32N 39°27' W 000°19'0 0.0
2015-May-22 18:32N 39°27' W 000°19'0 0.0
2015-May-22 17:32N 39°27' W 000°19'0 0.0
2015-May-22 16:32N 39°27' W 000°19'0 0.0
2015-May-22 15:32N 39°27' W 000°19'0 0.0
2015-May-22 14:32N 39°27' W 000°19'0 0.0
2015-May-22 13:33N 39°27' W 000°19'3 3.5
2015-May-22 12:33N 39°24' W 000°16'1 0.6
2015-May-22 11:32N 39°24' W 000°15'0 0.0
2015-May-22 10:29N 39°24' W 000°15'0 0.1
2015-May-22 08:23N 39°24' W 000°15'0 0.1
2015-May-22 07:29N 39°24' W 000°15'0 0.0
2015-May-22 06:29N 39°23' W 000°15'0 0.1
2015-May-22 05:14N 39°23' W 000°15'0 0.1
2015-May-22 04:32N 39°24' W 000°15'0 0.0
2015-May-22 03:29N 39°23' W 000°15'0 0.1
2015-May-22 02:29N 39°23' W 000°15'0 0.0
2015-May-22 01:17N 39°23' W 000°15'0 0.1
2015-May-22 00:29N 39°23' W 000°15'0 0.1
2015-May-21 22:29N 39°24' W 000°16'1 0.6
2015-May-21 21:32N 39°24' W 000°16'7 6.9
2015-May-21 20:33N 39°27' W 000°08'32113.9
2015-May-20 21:33N 43°10' E 004°59'1313.1
2015-May-20 20:33N 43°23' E 004°57'5 4.8
2015-May-20 19:31N 43°25' E 004°51'0 0.0
2015-May-20 18:31N 43°25' E 004°51'0 0.0
2015-May-20 17:31N 43°25' E 004°51'0 0.0
2015-May-20 16:31N 43°25' E 004°51'0 0.0
2015-May-20 15:28N 43°25' E 004°51'0 0.0
2015-May-20 14:31N 43°25' E 004°51'0 0.0
2015-May-20 13:31N 43°25' E 004°51'0 0.0
2015-May-20 12:31N 43°25' E 004°51'0 0.0
2015-May-20 11:31N 43°25' E 004°51'0 0.0
2015-May-20 10:31N 43°25' E 004°51'0 0.0
2015-May-20 09:31N 43°25' E 004°51'0 0.0
2015-May-20 08:28N 43°25' E 004°51'0 0.0
2015-May-20 07:31N 43°25' E 004°51'0 0.0
2015-May-20 06:22N 43°25' E 004°51'0 0.0
2015-May-20 05:31N 43°25' E 004°51'0 0.0
2015-May-20 04:31N 43°25' E 004°51'0 0.0
2015-May-20 03:25N 43°25' E 004°51'0 0.0
2015-May-20 02:31N 43°25' E 004°51'0 0.0
2015-May-20 01:31N 43°25' E 004°51'0 0.0
2015-May-20 00:31N 43°25' E 004°51'0 0.0
2015-May-19 23:28N 43°25' E 004°51'0 0.0
2015-May-19 22:25N 43°25' E 004°51'0 0.0
2015-May-19 21:31N 43°25' E 004°51'0 0.0
2015-May-19 20:25N 43°25' E 004°51'0 0.0
2015-May-19 19:31N 43°25' E 004°51'0 0.0
2015-May-19 18:31N 43°25' E 004°51'0 0.0
2015-May-19 17:33N 43°25' E 004°51'4 4.3
2015-May-19 16:33N 43°23' E 004°56'1110.9
2015-May-19 15:34N 43°13' E 005°02'11316.1
2015-May-19 08:34N 42°44' E 007°31'1716.6
2015-May-19 07:33N 43°01' E 007°25'1514.9
2015-May-19 06:34N 43°15' E 007°24'1614.3
2015-May-19 05:26N 43°27' E 007°38'1714.6
2015-May-19 04:16N 43°38' E 007°56'1115.1
2015-May-19 03:33N 43°44' E 008°09'1515.1
2015-May-19 02:34N 43°56' E 008°22'1515.3
2015-May-19 01:34N 44°09' E 008°32'1514.9
2015-May-19 00:34N 44°22' E 008°43'5 4.4
2015-May-18 23:32N 44°25' E 008°48'0 0.0
2015-May-18 22:32N 44°25' E 008°48'0 0.0
2015-May-18 21:32N 44°25' E 008°48'0 0.0
2015-May-18 20:32N 44°25' E 008°48'0 0.0
2015-May-18 19:32N 44°25' E 008°48'0 0.0
2015-May-18 18:32N 44°25' E 008°48'0 0.0
2015-May-18 17:32N 44°25' E 008°48'0 0.0
2015-May-18 16:32N 44°25' E 008°48'0 0.0
2015-May-18 15:32N 44°25' E 008°48'0 0.0
2015-May-18 14:32N 44°25' E 008°48'0 0.0
2015-May-18 13:29N 44°25' E 008°48'0 0.0
2015-May-18 12:32N 44°25' E 008°48'0 0.0
2015-May-18 11:32N 44°25' E 008°48'0 0.0
2015-May-18 10:32N 44°25' E 008°48'0 0.0
2015-May-18 09:32N 44°25' E 008°48'0 0.0
2015-May-18 08:29N 44°25' E 008°48'0 0.0
2015-May-18 07:32N 44°25' E 008°48'  

Dump ship's entire track history